Regional Weather Roundup
Issued by NWS

Home | Current Version | Previous Version | Text Only | Print | Product List | Glossary On
Versions: 1 2 3 4 5 6 7 8 9 10 11 12 13 14 15 16 17 18 19 20 21 22 23 24 25 26 27 28 29 30 31 32 33 34 35 36 37 38 39 40 41 42 43 44 45 46 47 48 49 50
000
ASUS43 KBIS 101102
RWRND

NORTH DAKOTA REGIONAL WEATHER ROUNDUP
NATIONAL WEATHER SERVICE BISMARCK ND
500 AM CST SAT DEC 10 2016

NOTE: "FAIR" INDICATES FEW OR NO CLOUDS BELOW 12,000 FEET WITH NO
SIGNIFICANT WEATHER AND/OR OBSTRUCTIONS TO VISIBILITY.


NDZ001>003-009>011-017-101200-
NORTHWEST NORTH DAKOTA

CITY           SKY/WX    TMP DP  RH WIND       PRES   REMARKS
WILLISTON      CLOUDY   -13 -18  78 NE6       30.31F WCI -27
MINOT          CLOUDY   -18 -24  74 CALM      30.39F
MINOT AFB      CLEAR    -23 -29  73 W2        30.40F
$$

NDZ018>021-031>035-040>046-101200-
SOUTHWEST NORTH DAKOTA

CITY           SKY/WX    TMP DP  RH WIND       PRES   REMARKS
BISMARCK       CLOUDY   -13 -17  82 E5        30.42F WCI -25
DICKINSON      CLOUDY   -10 -15  78 E9        30.19F WCI -27
GARRISON         N/A    -10 -14  82 NE5       30.35F WCI -22
HETTINGER ARPT LGT SNOW  -6  -9  86 SE10      30.23F FOG     WCI -24
$$

NDZ004>008-012>016-024-026-027-054-101200-
NORTHEAST NORTH DAKOTA

CITY           SKY/WX    TMP DP  RH WIND       PRES   REMARKS
GRAND FORKS    CLOUDY    -3  -9  75 N6        30.53F WCI -15
GRND FRKS AFB  CLOUDY    -6 -13  73 N3        30.52F
DEVILS LAKE    CLOUDY   -16 -20  82 CALM      30.45F
$$

NDZ022-023-025-028>030-036>039-047>053-101200-
SOUTHEAST NORTH DAKOTA

CITY           SKY/WX    TMP DP  RH WIND       PRES   REMARKS
FARGO          CLOUDY    -6 -12  75 W6        30.53S WCI -19
JAMESTOWN      CLOUDY   -14 -19  79 NW5       30.45F WCI -26
$$




USA.gov is the U.S. government's official web portal to all federal, state and local government web resources and services.